カタログに戻る

SL-12 DEB

LostHEO
NORAD 44556·DEBRIS·🇷🇺 Russia

打ち上げ Sep 2, 2010 から Baikonur Cosmodrome

Loading…

次のパス (今後24時間)

TLE

古いSource: Space-Track

元期: Oct 16, 2019, 09:53 UTC

1 44556U 10041AB  19289.41204393  .00017402  00000-0  27148-1 0  9992
2 44556  65.2159 271.9072 5763866  34.6492 352.3256  4.23910055  1782

AllMySatでSL-12 DEBをリアルタイム追跡

Download on the App Store